Content
SEND FEEDBACK

Daily
Averages
Monthly
Summary
United States of America

ST. LOUIS - SAINT LOUIS UNIVERSITY, MISSOURI


Home > North America > United States > Missouri
Elevation: 580 feet     Latitude: 38 38N     Longitude: 090 14W

WEATHER
 
SELECT A DAY
Number of Records: 188,419;   Date Range: 1/1/95 - 9/29/14
 
SHARE

PRINT THIS DATA

[ ← Previous Day ]
WEATHER ALMANAC - FEBRUARY 23, 2013
[ Next Day → ]
[ °C ]   °F
Weather ElementAverageHighLow
Temperature26.8 °F37 °F (4:53 pm)17.1 °F (6:53 am)
Dewpoint17.6 °F21 °F (4:53 pm)12.9 °F (6:53 am)
Humidity69.7 %85 % (4:53 am)48 % (2:53 pm)
Barometer30.05 in30.09 in (1:53 am)30.01 in (2:53 pm)
Wind Speed2.8 mph8.1 mph (2:53 pm)
Weather ElementAverage
Visibility9.1 mi
Wind DirectionSE (139.5 °)

Weather ElementTotal
Precipitation---
Heating Degree Days38 (Base 65)
Averaged from 22 records on February 23, 2013
WEATHER CONDITIONS BREAKOUT
WIND DIRECTION BREAKOUT
WEATHER BY HOUR - FEBRUARY 23, 2013
[ °C ]   °F
Local TimeTemperatureDewpointHumidityBarometerVisibilityWind DirectionWind SpeedGust SpeedPrecipitationEventsConditions
1:53 AM23.0 °F17.1 °F78 %30.09 in9.0 miCalmClear
2:53 AM23.0 °F17.1 °F78 %30.08 in10.0 miWSW (240°)4.6 mphClear
3:53 AM21.9 °F16.0 °F78 %30.07 in9.0 miWSW (240°)3.5 mphClear
4:53 AM19.9 °F16.0 °F85 %30.07 in8.0 miCalmClear
6:53 AM17.1 °F12.9 °F84 %30.07 in5.0 miCalmClear
7:53 AM21.0 °F17.1 °F85 %30.08 in6.0 miWest (270°)3.5 mphClear
8:53 AM24.1 °F17.1 °F75 %30.06 in10.0 miWNW (300°)4.6 mphClear
9:53 AM27.0 °F18.0 °F69 %30.07 in10.0 miCalmClear
10:53 AM30.0 °F17.1 °F59 %30.06 in10.0 miCalmClear
11:53 AM30.0 °F16.0 °F56 %30.07 in10.0 miWest (260°)6.9 mphClear
12:53 PM32.0 °F17.1 °F54 %30.04 in10.0 miNW (320°)5.8 mphClear
1:53 PM34.0 °F18.0 °F52 %30.02 in10.0 miNW (320°)4.6 mphClear
2:53 PM35.1 °F17.1 °F48 %30.01 in10.0 miWest (260°)8.1 mphClear
3:53 PM35.1 °F18.0 °F50 %30.01 in10.0 miWest (260°)5.8 mphClear
4:53 PM37.0 °F21.0 °F52 %30.01 in10.0 miNorth (350°)3.5 mphClear
5:53 PM32.0 °F21.0 °F64 %30.02 in10.0 miENE (60°)6.9 mphClear
6:53 PM30.0 °F19.9 °F66 %30.03 in10.0 miCalmClear
7:53 PM26.1 °F19.0 °F75 %30.04 in10.0 miCalmClear
8:53 PM24.1 °F19.0 °F81 %30.05 in9.0 miCalmClear
9:53 PM24.1 °F18.0 °F77 %30.05 in10.0 miCalmClear
10:53 PM21.9 °F18.0 °F85 %30.04 in7.0 miCalmClear
11:53 PM21.9 °F17.1 °F82 %30.06 in7.0 miSouth (190°)3.5 mphClear
Hourly data recorded from KCPS, located miles away from St. Louis - Saint Louis University, Missouri







STORIES FROM OUR PARTNERS